GW6879 Weather Reports


Display with metric or nautical units.
time (UTC)temp
F
wind
direction
speed
MPH
gust
MPH
rain 1hr
in
rain 24hr
in
rain mn
in
humidity
%
barometer
mb
20260504175017 51 174 5.0 16.0 0.01 0.01 0.01 57 1015.2
20260504160208 52 236 0.0 5.0 0.00 0.00 0.00 52 1015.4
20260504151056 52 180 2.0 6.0 0.00 0.00 0.00 52 1016.0
20260504150553 53 209 3.0 8.0 0.00 0.00 0.00 50 1016.0
20260504150119 54 207 3.0 8.0 0.00 0.00 0.00 49 1015.8
20260504141115 47 154 3.0 10.0 0.00 0.00 0.00 59 1015.7
20260504140621 47 178 2.0 10.0 0.00 0.00 0.00 59 1015.7
20260504140112 47 159 3.0 9.0 0.00 0.00 0.00 59 1015.6
20260504130612 47 143 6.0 13.0 0.00 0.00 0.00 59 1014.9
20260504130109 47 144 5.0 9.0 0.00 0.00 0.00 59 1014.6
20260504120255 47 184 4.0 10.0 0.00 0.00 0.00 57 1014.8
20260504120154 47 161 5.0 9.0 0.00 0.00 0.00 57 1014.8
20260504120130 48 152 3.0 9.0 0.00 0.00 0.00 56 1014.9
20260504090140 50 169 4.0 11.0 0.00 0.00 0.00 33 1014.5
20260504070201 51 139 1.0 4.0 0.00 0.00 0.00 28 1014.7
20260504050607 52 136 1.0 4.0 0.00 0.00 0.00 30 1015.5
20260504050204 52 129 2.0 4.0 0.00 0.00 0.00 30 1015.5
20260504045624 52 126 1.0 4.0 0.00 0.00 0.00 30 1015.7
20260504045115 52 128 1.0 4.0 0.00 0.00 0.00 29 1015.7
20260504044633 52 134 1.0 3.0 0.00 0.00 0.00 29 1015.6
20260504044112 52 142 1.0 3.0 0.00 0.00 0.00 29 1015.8
20260504043627 52 126 1.0 4.0 0.00 0.00 0.00 29 1015.7
20260504043210 53 131 1.0 4.0 0.00 0.00 0.00 29 1015.8
20260504042606 53 131 1.0 4.0 0.00 0.00 0.00 28 1015.9
20260504042112 54 122 0.0 2.0 0.00 0.00 0.00 28 1015.9
20260504041653 54 159 0.0 2.0 0.00 0.00 0.00 27 1015.9
20260504041052 54 150 1.0 2.0 0.00 0.00 0.00 26 1015.9
20260504040614 54 144 0.0 2.0 0.00 0.00 0.00 26 1016.0
20260504040205 55 164 0.0 3.0 0.00 0.00 0.00 26 1016.0
20260504035622 55 211 0.0 2.0 0.00 0.00 0.00 25 1015.9
20260504035027 56 220 0.0 2.0 0.00 0.00 0.00 23 1016.0
20260504034646 56 220 0.0 3.0 0.00 0.00 0.00 23 1016.1
20260504034052 56 219 1.0 3.0 0.00 0.00 0.00 23 1016.2
20260504033608 57 15 0.0 2.0 0.00 0.00 0.00 22 1016.0
20260504033203 56 15 0.0 1.0 0.00 0.00 0.00 22 1015.8
20260504032601 56 15 0.0 2.0 0.00 0.00 0.00 22 1015.7
20260504032114 56 15 1.0 3.0 0.00 0.00 0.00 22 1015.7
20260504031658 56 15 1.0 4.0 0.00 0.00 0.00 21 1015.8
20260504031114 56 29 0.0 3.0 0.00 0.00 0.00 21 1015.7
20260504030600 56 30 1.0 3.0 0.00 0.00 0.00 22 1015.8
20260504030210 56 12 1.0 3.0 0.00 0.00 0.00 22 1015.8
20260504025601 57 13 1.0 3.0 0.00 0.00 0.00 24 1015.8
20260504025107 57 302 1.0 4.0 0.00 0.00 0.00 23 1015.8
20260504024615 57 284 1.0 4.0 0.00 0.00 0.00 23 1015.8
20260504024056 57 264 1.0 3.0 0.00 0.00 0.00 23 1015.8
20260504023602 57 251 1.0 5.0 0.00 0.00 0.00 23 1015.8
20260504023153 57 279 1.0 5.0 0.00 0.00 0.00 23 1015.7
20260504022727 57 266 2.0 6.0 0.00 0.00 0.00 22 1015.8
20260504022625 57 255 1.0 6.0 0.00 0.00 0.00 23 1015.7
20260504022523 58 225 2.0 6.0 0.00 0.00 0.00 23 1015.8
20260504022421 58 251 1.0 4.0 0.00 0.00 0.00 23 1015.9
20260504020551 58 250 1.0 6.0 0.00 0.00 0.00 23 1015.9
20260504020115 58 233 2.0 6.0 0.00 0.00 0.00 23 1015.9
20260504015611 59 260 1.0 3.0 0.00 0.00 0.00 23 1016.0
20260504015123 59 248 0.0 2.0 0.00 0.00 0.00 23 1016.0
20260504014559 59 257 0.0 5.0 0.00 0.00 0.00 23 1015.9
20260504014120 60 212 1.0 5.0 0.00 0.00 0.00 23 1015.8
20260504013605 60 209 1.0 5.0 0.00 0.00 0.00 23 1015.7
20260504013121 60 181 1.0 6.0 0.00 0.00 0.00 23 1015.9
20260504012554 60 244 2.0 6.0 0.00 0.00 0.00 23 1015.9
20260504012052 60 180 1.0 6.0 0.00 0.00 0.00 23 1015.9
20260504011624 60 210 3.0 7.0 0.00 0.00 0.00 22 1015.9
20260504011103 60 163 2.0 5.0 0.00 0.00 0.00 22 1016.0
20260504010629 60 195 2.0 5.0 0.00 0.00 0.00 22 1016.0
20260504010110 60 215 2.0 5.0 0.00 0.00 0.00 21 1016.0
20260504005615 60 252 2.0 5.0 0.00 0.00 0.00 20 1016.0
20260504005110 61 162 2.0 8.0 0.00 0.00 0.00 21 1016.1
20260504004611 61 255 3.0 8.0 0.00 0.00 0.00 21 1016.0
20260504004110 61 157 1.0 4.0 0.00 0.00 0.00 21 1016.1
20260504004041 61 259 0.0 7.0 0.00 0.00 0.00 22 1016.1
20260504003119 61 263 1.0 11.0 0.00 0.00 0.00 21 1016.2
20260504002615 61 271 4.0 11.0 0.00 0.00 0.00 21 1016.3
20260504002102 61 331 3.0 8.0 0.00 0.00 0.00 21 1016.2
20260504001630 62 260 2.0 8.0 0.00 0.00 0.00 20 1016.3
20260504001050 62 220 2.0 11.0 0.00 0.00 0.00 21 1016.4
20260504000610 62 188 2.0 8.0 0.00 0.00 0.00 22 1016.4
20260504000141 62 196 1.0 9.0 0.00 0.00 0.00 21 1016.5
20260503235545 62 319 2.0 10.0 0.00 0.00 0.00 21 1016.4
20260503235132 62 267 2.0 10.0 0.00 0.00 0.00 21 1016.5
20260503235020 62 247 3.0 8.0 0.00 0.00 0.00 20 1016.5
20260503234915 62 261 1.0 7.0 0.00 0.00 0.00 19 1016.6
20260503234815 62 309 2.0 7.0 0.00 0.00 0.00 19 1016.6
20260503234743 62 309 2.0 7.0 0.00 0.00 0.00 19 1016.6
20260503233143 62 264 2.0 9.0 0.00 0.00 0.00 19 1016.6
20260503232550 62 323 3.0 14.0 0.00 0.00 0.00 19 1016.6
20260503232052 62 242 4.0 14.0 0.00 0.00 0.00 18 1016.6
20260503231615 63 184 2.0 7.0 0.00 0.00 0.00 19 1016.6
20260503231105 62 231 1.0 7.0 0.00 0.00 0.00 22 1016.7
20260503230609 62 237 1.0 5.0 0.00 0.00 0.00 21 1016.8
20260503230215 62 181 2.0 5.0 0.00 0.00 0.00 22 1016.7
20260503225550 62 225 2.0 6.0 0.00 0.00 0.00 22 1016.8
20260503225113 61 195 3.0 8.0 0.00 0.00 0.00 22 1016.9
20260503224627 61 194 3.0 10.0 0.00 0.00 0.00 21 1016.9
20260503224050 62 119 5.0 12.0 0.00 0.00 0.00 23 1016.9
20260503223612 62 192 6.0 12.0 0.00 0.00 0.00 22 1016.9
20260503223137 62 232 3.0 11.0 0.00 0.00 0.00 22 1017.0
20260503222602 62 246 3.0 11.0 0.00 0.00 0.00 21 1017.0
20260503222047 62 327 2.0 9.0 0.00 0.00 0.00 21 1017.1
20260503221624 62 282 4.0 9.0 0.00 0.00 0.00 21 1017.2
20260503221110 62 345 2.0 6.0 0.00 0.00 0.00 23 1017.2
20260503220552 62 275 2.0 8.0 0.00 0.00 0.00 22 1017.4
20260503220122 62 288 3.0 8.0 0.00 0.00 0.00 23 1017.5
20260503215615 62 334 3.0 11.0 0.00 0.00 0.00 22 1017.6
20260503215103 62 343 5.0 11.0 0.00 0.00 0.00 22 1017.6
20260503214653 62 355 2.0 8.0 0.00 0.00 0.00 20 1017.7
20260503214104 62 271 2.0 10.0 0.00 0.00 0.00 20 1017.6
20260503214002 62 338 2.0 11.0 0.00 0.00 0.00 23 1017.7
20260503213902 62 5 2.0 11.0 0.00 0.00 0.00 21 1017.8
20260503213759 63 245 2.0 8.0 0.00 0.00 0.00 20 1017.8
20260503213655 63 252 2.0 6.0 0.00 0.00 0.00 21 1018.0
20260503211642 64 318 3.0 6.0 0.00 0.00 0.00 21 1018.2
20260503211109 64 258 1.0 10.0 0.00 0.00 0.00 22 1018.1
20260503210555 64 175 2.0 10.0 0.00 0.00 0.00 23 1018.0
20260503210149 63 168 3.0 10.0 0.00 0.00 0.00 22 1018.4
20260503205616 62 182 2.0 8.0 0.00 0.00 0.00 24 1018.4
20260503205059 62 255 3.0 10.0 0.00 0.00 0.00 23 1018.5
20260503204609 62 180 3.0 7.0 0.00 0.00 0.00 22 1018.6
20260503204102 62 242 2.0 11.0 0.00 0.00 0.00 22 1018.8
20260503203549 62 269 5.0 11.0 0.00 0.00 0.00 22 1018.6
20260503203133 63 219 2.0 9.0 0.00 0.00 0.00 22 1018.6
20260503202543 64 337 3.0 12.0 0.00 0.00 0.00 21 1018.6